MPEC 2004-K76 : 2004 KH17

The following Minor Planet Electronic Circular may be linked-to from your own Web pages, but must not otherwise be redistributed electronically.


Read MPEC 2004-K75 Read MPEC 2004-K77


M.P.E.C. 2004-K76                                Issued 2004 May 30, 21:51 UT

     The Minor Planet Electronic Circulars contain information on unusual
         minor planets and routine data on comets.  They are published
   on behalf of Commission 20 of the International Astronomical Union by the
          Minor Planet Center, Smithsonian Astrophysical Observatory,
                          Cambridge, MA 02138, U.S.A.

         Supported in part by the Steven and Michele Kirsch Foundation
             Prepared using the Tamkin Foundation Computer Network

                              MPC@CFA.HARVARD.EDU
          URL http://cfa-www.harvard.edu/iau/mpc.html  ISSN 1523-6714

                                   2004 KH17

Observations:
     K04K17H* C2004 05 29.31706 17 34 37.93 +39 17 51.9          19.1   EK076704
     K04K17H  C2004 05 29.32591 17 34 27.82 +39 18 08.2          18.9   EK076704
     K04K17H  C2004 05 29.33469 17 34 17.76 +39 18 24.1          18.7   EK076704
     K04K17H  C2004 05 29.94313 17 22 44.59 +39 34 39.8          17.7 R EK076132
     K04K17H  C2004 05 29.94794 17 22 38.65 +39 34 47.6          18.6 R EK076132
     K04K17H  C2004 05 29.95211 17 22 33.53 +39 34 54.2          18.6 R EK076132
     K04K17H  C2004 05 30.16680 17 18 17.95 +39 39 47.0          18.1 R EK076G90
     K04K17H  C2004 05 30.16828 17 18 16.12 +39 39 49.0          18.2 R EK076G90
     K04K17H  C2004 05 30.16973 17 18 14.34 +39 39 50.8          18.2 R EK076G90
     K04K17H  C2004 05 30.17227 17 18 11.27 +39 39 56.4          18.4 R EK076926
     K04K17H  C2004 05 30.17269 17 18 10.69 +39 39 57.6          18.6 R EK076926
     K04K17H  C2004 05 30.17311 17 18 10.19 +39 39 59.6          18.8 R EK076926
     K04K17H  C2004 05 30.29350 17 15 36.35 +39 42 53.8          19.0   EK076704
     K04K17H  C2004 05 30.30227 17 15 24.94 +39 43 04.8          18.8   EK076704
     K04K17H  C2004 05 30.30317 17 15 23.75 +39 43 04.5          19.0   EK076704
     K04K17H  C2004 05 30.31112 17 15 13.52 +39 43 15.3          18.6   EK076704
     K04K17H  C2004 05 30.31213 17 15 12.24 +39 43 16.0          18.7   EK076704
     K04K17H  C2004 05 30.31988 17 15 02.11 +39 43 26.5          19.0   EK076704
     K04K17H  C2004 05 30.32109 17 15 00.59 +39 43 28.2          18.7   EK076704
     K04K17H  C2004 05 30.32855 17 14 50.99 +39 43 36.1          18.7   EK076704
     K04K17H  C2004 05 30.33000 17 14 49.04 +39 43 38.0          18.7   EK076704
     K04K17H  C2004 05 30.33613 17 14 42.60 +39 43 43.7          18.0 R EK076G70
     K04K17H  C2004 05 30.34608 17 14 28.56 +39 43 58.6          18.8 R EK076703
     K04K17H  C2004 05 30.34710 17 14 28.33 +39 43 57.6          18.0 R EK076G70
     K04K17H  C2004 05 30.35525 17 14 16.59 +39 44 10.0          18.6 R EK076703
     K04K17H  C2004 05 30.35801 17 14 14.14 +39 44 10.0          18.0 R EK076G70
     K04K17H  C2004 05 30.36444 17 14 04.56 +39 44 19.1          17.9 R EK076703
     K04K17H  C2004 05 30.37365 17 13 52.69 +39 44 33.3          17.8 R EK076703
     K04K17H  C2004 05 30.40133 17 13 15.86 +39 44 55.2          18.4 R EK076H06
     K04K17H  C2004 05 30.40668 17 13 09.24 +39 45 03.4          18.6 R EK076703
     K04K17H  C2004 05 30.40703 17 13 08.43 +39 45 01.0          18.5 R EK076H06
     K04K17H  C2004 05 30.40898 17 13 06.36 +39 45 03.4          18.6 R EK076703
     K04K17H  C2004 05 30.41125 17 13 03.32 +39 45 07.1          18.4 R EK076703
     K04K17H  C2004 05 30.41259 17 13 01.16 +39 45 05.9          18.3 R EK076H06
     K04K17H  C2004 05 30.41352 17 13 00.39 +39 45 09.6          18.9 R EK076703

Observer details:
132 Bedoin.  Observer P. Antonini.  0.30-m f/3.3 Schmidt-Cassegrain + CCD.
703 Catalina Sky Survey.  Observers S. Larson, E. Beshore, E. Christensen,
    R. Hill, S. Howard, D. McLean.
704 Lincoln Laboratory ETS, New Mexico.  Observers M. Blythe, F. Shelly,
    M. Bezpalko, R. Huber, L. Manguso, D. Torres, R. Kracke, M. McCleary,
    H. Stange, A. Milner.  Measurers J. Stuart, R. Sayer, J. Evans, J. Kommers.
    1.0-m f/2.15 reflector + CCD.
926 Tenagra II Observatory.  Observers P. R. Holvorcem, M. Schwartz.  0.81-m
    f/7 Ritchey-Chretien + CCD.
G70 Francisquito Observatory, Los Angeles.  Observer R. E. Jones.  0.30-m
    f/6.7 reflector + CCD.
G90 Three Buttes Observatory, Tucson.  Observer G. R. Jones.  0.35-m f/11.0
    Schmidt-Cassegrain + CCD.
H06 New Mexico Skies Observatory.  Observer R. Hutsebaut.  0.25-m reflector
    + CCD.

Orbital elements:
2004 KH17                                                            PHA 0.010D
Epoch 2004 May 15.0 TT = JDT 2453140.5                  MPC
M 177.69653              (2000.0)            P               Q
n   1.64374676     Peri.  340.59864     +0.48037983     -0.78999547
a   0.7110707      Node    79.00766     +0.84722789     +0.30564689
e   0.5024436      Incl.   22.83608     +0.22680417     +0.53149518
P   0.60           H   21.8           G   0.15
From 35 observations 2004 May 29-30.

Ephemeris:
2004 KH17                a,e,i = 0.71, 0.50, 23                  q = 0.3538
Date    TT    R. A. (2000) Decl.     Delta      r     Elong.  Phase     V
2004 05 25    18 34.04   +36 29.0    0.116    1.064   113.0    61.2    19.4
2004 06 04    15 10.36   +37 13.5    0.067    1.046   116.0    60.7    18.2
2004 06 14    11 28.78   +07 07.4    0.087    1.015    86.8    88.3    19.6
2004 06 24    10 18.88   -07 27.8    0.149    0.970    67.7   104.2    21.4
2004 07 04    09 46.65   -12 32.6    0.216    0.911    55.2   113.5    22.7

Timothy B. Spahr             (C) Copyright 2004 MPC           M.P.E.C. 2004-K76

Read MPEC 2004-K75 Read MPEC 2004-K77


Our Web policy. Index to the CBAT/MPC/ICQ pages.

MPC